If you wish to contribute or participate in the discussions about articles you are invited to join SKYbrary as a registered user

 Actions

Albury Airport

From SKYbrary Wiki

YMAY
Airport
ICAO: YMAY – IATA: ABX
Summary
Name Albury Airport
Region Asia and Pacific
Territory Australia AU.gif
Location , New South Wales
Serving Albury
Elevation 164.287 m <br />539 ft <br />539 ft164.287 m <br />
Type medium airport
Coordinates 36° 4' 4.01" S, 146° 57' 29.02" E
Runways
Designator Length Width Surface ROPS
7/25 1900 m6,233.596 ft <br /> 30 m98.425 ft <br /> ASP /


METAR
Observation YMAY 181500Z AUTO 26005KT 240V300 9999 // NCD 10/10 Q1014
Station Albury Airport
Date/Time 18 October 2021 15:00:00
Wind direction 260°
Wind speed 05 kts
Lowest cloud amount no clouds detected
Temperature 10°C
Dew point 10°C
Humidity 100%
QNH 1014 hPa
Weather condition n/a